Regional Weather Roundup
Issued by NWS

Home | Current Version | Previous Version | Graphics & Text | Print | Product List | Glossary On
Versions: 1 2 3 4 5 6 7 8 9 10 11 12 13 14 15 16 17 18 19 20 21 22 23 24 25 26 27 28 29 30 31 32 33 34 35 36 37 38 39 40 41 42 43 44 45 46 47 48 49 50
000
ASUS43 KOAX 221102
RWRNE

WEATHER ROUNDUP FOR NEBRASKA
NATIONAL WEATHER SERVICE OMAHA NE
600 AM CDT MON SEP 22 2014

NOTES: SATELLITE DATA IS BEING USED TO AUGMENT CLOUD COVER ABOVE
       12000 FEET.
       "FAIR" INDICATES FEW OR NO CLOUDS BELOW 12,000 FEET WITH NO
       SIGNIFICANT WEATHER AND/OR OBSTRUCTIONS TO VISIBILITY.

  * THESE STATIONS DO NOT REPORT WEATHER SUCH AS RAIN...SNOW OR FOG.

NEZ001>004-019>022-054>056-221200-
NEBRASKA PANHANDLE

CITY           SKY/WX    TMP DP  RH WIND       PRES   REMARKS
SCOTTSBLUFF    MOCLDY    60  42  51 SE13      30.18F
ALLIANCE       PTCLDY    52  41  66 SE12      30.21F
CHADRON        PTCLDY    60  41  49 S18       30.12F
KIMBALL        MOCLDY    56  40  54 S12G18    30.20F
SIDNEY         MOCLDY    59  40  49 S13       30.24F
$$

NEZ057>060-069>072-079>082-221200-
SOUTHWEST NEBRASKA

CITY           SKY/WX    TMP DP  RH WIND       PRES   REMARKS
NORTH PLATTE   MOCLDY    50  44  80 SE7       30.28F
IMPERIAL       CLOUDY    58  41  53 SE9       30.27F
LEXINGTON      PTCLDY    49  45  87 SE3       30.31S
MCCOOK         CLOUDY    52  45  77 CALM      30.30R
OGALLALA       MOCLDY    52  46  79 E3        30.26F
$$

NEZ005>010-023>029-035>040-094-221200-
NORTH CENTRAL NEBRASKA

CITY           SKY/WX    TMP DP  RH WIND       PRES   REMARKS
VALENTINE      MOCLDY    51  42  71 S5        30.25S
AINSWORTH      PTCLDY    47  42  85 S8        30.27S
BROKEN BOW     CLEAR     41  39  93 CALM      30.30R
O`NEILL        CLEAR     47  44  89 S5        30.29S
ORD            PTCLDY    40  38  93 CALM      30.29S
THEDFORD       CLEAR     52  44  74 S7        30.28S
$$

NEZ041-046>049-061>064-073>077-083>087-221200-
SOUTH CENTRAL NEBRASKA

CITY           SKY/WX    TMP DP  RH WIND       PRES   REMARKS
GRAND ISLAND   CLEAR     49  44  83 S5        30.31R
AURORA         CLEAR     44  42  93 SW3       30.31R
HASTINGS       CLEAR     45  42  89 SW3       30.31R
HEBRON         CLEAR     42  40  93 CALM      30.31S
HOLDREGE       PTCLDY    50  45  83 CALM      30.31R
KEARNEY *      CLEAR     46  43  87 SE5       30.32S
YORK           CLEAR     45  45 100 MISG      30.31S
$$

NEZ011>018-030>034-042>045-221200-
NORTHEAST NEBRASKA

CITY           SKY/WX    TMP DP  RH WIND       PRES   REMARKS
NORFOLK        CLEAR     41  40  96 E3        30.29S
ALBION         CLEAR     41  38  89 CALM      30.30S
BLAIR          CLEAR     53  47  80 CALM      30.30S
COLUMBUS *     CLEAR     39  36  87 CALM      30.31S
FREMONT        CLEAR     46  45  95 CALM      30.31R
TEKAMAH        CLEAR     43  42  97 CALM      30.30S
WAYNE          CLEAR     40  39  96 S3        30.31R
$$

NEZ050>053-065>068-078-088>093-221200-
SOUTHEAST NEBRASKA

CITY           SKY/WX    TMP DP  RH WIND       PRES   REMARKS
LINCOLN        CLEAR     45  43  93 CALM      30.32R
OMAHA EPPLEY   PTCLDY    49  47  93 W3        30.31R
BEATRICE       CLEAR     43  42  96 CALM      30.30F
FALLS CITY     CLEAR     48  46  93 CALM      30.30R
NEBRASKA CITY    N/A     52  44  75 CALM      30.31S
PLATTSMOUTH    CLEAR     49  47  90 CALM      30.31R
$$

NEZ044-045-051>053-067-221200-
OMAHA AREA

CITY           SKY/WX    TMP DP  RH WIND       PRES   REMARKS
OMAHA EPPLEY   PTCLDY    49  47  93 W3        30.31R
BLAIR          CLEAR     53  47  80 CALM      30.30S
FREMONT        CLEAR     46  45  95 CALM      30.31R
MILLARD        CLEAR     48  47  97 CALM      30.31R
OFFUTT AFB     CLEAR     46  46 100 CALM      30.31R
PLATTSMOUTH    CLEAR     49  47  90 CALM      30.31R
WAHOO          FAIR      45  42  90 CALM      30.31R
$$



USA.gov is the U.S. government's official web portal to all federal, state and local government web resources and services.